Regional Weather Roundup
Issued by NWS

Home | Current Version | Previous Version | Graphics & Text | Print | Product List | Glossary On
Versions: 1 2 3 4 5 6 7 8 9 10 11 12 13 14 15 16 17 18 19 20 21 22 23 24 25 26 27 28 29 30 31 32 33 34 35 36 37 38 39 40 41 42 43 44 45 46 47 48 49 50
000
ASUS43 KLSX 271559
RWRMO

WEATHER SUMMARY FOR MISSOURI
NATIONAL WEATHER SERVICE SPRINGFIELD MO
1100 AM CDT WED AUG 27 2014

NOTE: "FAIR" INDICATES FEW OR NO CLOUDS BELOW 12,000 FEET WITH NO
       SIGNIFICANT WEATHER AND/OR OBSTRUCTIONS TO VISIBILITY.
       CURRENT SKY AND/OR WEATHER CONDITIONS ARE NOT AVAILABLE FOR
       CHILLICOTHE AND FARMINGTON.

MOZ001>031-035>038-043-044-053-054-271700-
...NORTHERN AND WESTERN MISSOURI...

CITY           SKY/WX    TMP DP  RH WIND       PRES   REMARKS
KANSAS CTY INT CLOUDY    74  69  85 N9        30.16R
KANSAS C DTWN  PTSUNNY   81  70  69 NE9       30.13R
LEE`S SUMMIT   MOSUNNY   80  71  74 E9        30.14S
ST JOSEPH      LGT RAIN  69  68  96 N6        30.17S
KIRKSVILLE     CLOUDY    76  68  76 NE7       30.17S

$$
MOZ066>068-077>081-088>096-101>105-271700-
...SOUTHWEST MISSOURI...

CITY           SKY/WX    TMP DP  RH WIND       PRES   REMARKS
SPRINGFIELD    SUNNY     88  70  55 NW7       30.14S HX  93
JOPLIN         SUNNY     89  70  53 W7        30.13F HX  94

$$
MOZ032>034-039>042-045>050-055>058-069>072-271700-
...CENTRAL MISSOURI...

CITY           SKY/WX    TMP DP  RH WIND       PRES   REMARKS
COLUMBIA       MOSUNNY   88  72  58 N10       30.12R HX  94
JEFFERSON CITY MOSUNNY   87  71  58 CALM      30.10R HX  93
ROLLA          SUNNY     90  68  48 SW9       30.12R HX  94
SEDALIA        MOSUNNY   82  72  71 N12       30.15R
OSAGE BEACH    SUNNY     88  72  58 W8        30.11S HX  94

$$
MOZ051-052-059>065-271700-
...EAST CENTRAL MISSOURI...

CITY           SKY/WX    TMP DP  RH WIND       PRES   REMARKS
ST LOUIS INTL  PTSUNNY   87  74  64 E3        30.11F HX  95
SPIRIT OF STL  MOSUNNY   88  72  58 CALM      30.09F HX  94
ST CHARLES     SUNNY     84  73  69 SE5       30.10S HX  90

$$
MOZ072>076-082>087-097>100-106>115-271700-
...SOUTH CENTRAL AND SOUTHEAST MISSOURI...

CITY           SKY/WX    TMP DP  RH WIND       PRES   REMARKS
CAPE GIRARDEAU SUNNY     86  74  67 CALM      30.11S HX  94
FARMINGTON     SUNNY     88  72  58 W3        30.15S HX  94
POPLAR BLUFF   SUNNY     88  72  58 CALM      30.10R HX  94
WEST PLAINS    SUNNY     88  70  55 VRB5      30.15S HX  93

$$


USA.gov is the U.S. government's official web portal to all federal, state and local government web resources and services.